Regional Weather Roundup
Issued by NWS

Home | Current Version | Previous Version | Graphics & Text | Print | Product List | Glossary On
Versions: 1 2 3 4 5 6 7 8 9 10 11 12 13 14 15 16 17 18 19 20 21 22 23 24 25 26 27
000
ASUS45 KBOU 162307
RWRCO

WEATHER ROUNDUP FOR COLORADO
NATIONAL WEATHER SERVICE DENVER/BOULDER CO
500 PM MDT WED AUG 16 2017

NOTE: "FAIR" INDICATES FEW OR NO CLOUDS BELOW 12000 FEET WITH NO
SIGNIFICANT WEATHER AND/OR OBSTRUCTIONS TO VISIBILITY.

COZ001>005-013-030-031-170000-
...NORTHWEST COLORADO...

CITY           SKY/WX    TMP DP  RH WIND       PRES   REMARKS
CRAIG          FAIR      79  29  16 W10       30.17S
HAYDEN         FAIR      76  35  22 NW9       30.21S
MEEKER         FAIR      77  30  17 W9        30.17S
RABBIT EARS PA FAIR      54  34  47 W7G28     30.44S
STEAMBOAT SPGS FAIR      69  39  33 NW8       30.20S
WALDEN         PTSUNNY   61  41  48 E17       30.31S
$$

COZ006>008-011-170000-
...WEST CENTRAL VALLEYS...

CITY           SKY/WX    TMP DP  RH WIND       PRES   REMARKS
GRAND JUNCTION FAIR      87  31  13 W13       30.04S
MONTROSE       FAIR      81  36  19 N8        30.12F
EAGLE          PTSUNNY   74  36  25 NW12      30.18R
RIFLE          FAIR      83  39  21 N10       30.10S
DELTA          FAIR      88  30  12 SW6       30.07F
NUCLA          FAIR      84  19   9 W7G17     30.15S
$$

COZ017>023-064>068-170000-
...SOUTHWEST COLORADO...

CITY           SKY/WX    TMP DP  RH WIND       PRES   REMARKS
DURANGO        FAIR      79  23  12 SW9       30.17F
CORTEZ         FAIR      83  21  10 VRB6      30.14S
PAGOSA SPRINGS CLOUDY    76  20  12 SW14G22   30.25S
TELLURIDE      FAIR      69  22  17 W6        30.37F
WOLF CREEK PAS FAIR      52  32  46 SW13G22   30.58F
$$

COZ009-010-012-014-032>034-037-058>063-170000-
...CENTRAL COLORADO...

CITY           SKY/WX    TMP DP  RH WIND       PRES   REMARKS
ASPEN          PTSUNNY   74  32  21 VRB7      30.24S
BUENA VISTA    PTSUNNY   71  29  20 NW15      30.23S
COPPER MTN     PTSUNNY   55  32  41 NW10G16   30.54R
BERTHOUD PASS  CLOUDY    37  34  87 W15G36    30.56R
COTTONWOOD PAS FAIR      68  27  21 CALM      30.38R
GUNNISON       FAIR      72  33  24 SW12      30.24F
KREMMLING      CLOUDY    77  32  19 W5        30.22S
LEADVILLE      PTSUNNY   63  28  26 NW15      30.38R
MONARCH PASS   FAIR      54  27  35 W22G29    30.64S
SALIDA         FAIR      78  30  17 SW18      30.27S
SUNLIGHT       PTSUNNY   55  34  44 W9        30.50R
WILKERSON PASS PTSUNNY   52  36  54 NE3       30.51S
$$

COZ069>075-170000-
...SAN LUIS VALLEY/SANGRE DE CRISTO MOUNTAINS...

CITY           SKY/WX    TMP DP  RH WIND       PRES   REMARKS
ALAMOSA        FAIR      76  32  20 SW9       30.22S
DEL NORTE      FAIR      71  36  28 SE8       30.25F
LA VETA PASS   NOT AVBL
SAGUACHE       PTSUNNY   72  30  21 NW10G18   30.24S
$$

COZ035-036-038>040-170000-
...NORTHERN COLORADO FRONT RANGE...

CITY           SKY/WX    TMP DP  RH WIND       PRES   REMARKS
DENVER INTL AP PTSUNNY   76  44  32 NW7       30.13S
DMNS CITY PARK   N/A     76  43  30 N13       30.13S
AURORA         MOSUNNY   74  45  34 N10       30.15S
FRONT RANGE AP PTSUNNY   81  45  28 N12G21    30.14F
ERIE MUNI ARPT FAIR      75  44  33 NW6       30.18S
BOULDER MUN AP FAIR      72  46  40 N3        30.14S
CENTENNIAL     FAIR      74  43  32 N6        30.15S
BROOMFIELD     PTSUNNY   73  45  35 CALM      30.15S
FORT COLLINS   LGT RAIN  70  49  47 W7        30.12S
LONGMONT       LGT RAIN  72  46  39 W3        30.14S
$$

COZ041-046-047-076>085-087-088-170000-
...PIKES PEAK/PALMER DIVIDE AND SOUTHERN FOOTHILLS...

CITY           SKY/WX    TMP DP  RH WIND       PRES   REMARKS
COLO. SPRINGS  PTSUNNY   71  48  43 CALM      30.18S THUNDER
A. F. ACADEMY  FAIR      71  46  40 SW5       30.19S
SCHRIEVER AFB  FAIR      71  46  41 E7        30.18R
CHEYENNE MTN   PTSUNNY   60  51  70 CALM      30.17S
ELLICOTT       FAIR     N/A N/A N/A CALM      30.17R
FALCON         RAIN      63  51  64 NE10G16   30.23S
FORT CARSON    FAIR      68  54  60 NW10G21   30.15S
LIMON          FAIR      74  46  36 NW10G17   30.14R
MONUMENT HILL  FAIR      63  46  55 E5        30.25S
CANON CITY     MOSUNNY   81  48  32 E8        30.09S
WALSENBURG     FAIR      82  46  28 SE8G17    30.13S
TRINIDAD       FAIR      77  46  33 VRB6      30.12S
$$

COZ042>045-048>051-090-091-170000-
...NORTHEAST COLORADO...

CITY           SKY/WX    TMP DP  RH WIND       PRES   REMARKS
GREELEY ARPT   FAIR      76  49  38 SW8       30.10S
AKRON          FAIR      75  46  35 N15       30.08S
BURLINGTON     FAIR      78  51  38 NW13      30.05S
WRAY           NOT AVBL
YUMA           FAIR      73  36  25 N12G20    30.06R
STERLING       FAIR      79  50  36 N9G21     30.04R
HOLYOKE        FAIR      79  54  41 N10G18    30.04S
FORT MORGAN    FAIR      79  37  21 NW12G17   30.09R
$$

COZ086-089-092>099-170000-
...SOUTHEAST COLORADO...

CITY           SKY/WX    TMP DP  RH WIND       PRES   REMARKS
PUEBLO         FAIR      82  45  27 S8        30.05F
LA JUNTA       FAIR      84  49  29 N7        30.05S
LAMAR          FAIR      84  51  31 N9        30.01S
SPRINGFIELD      N/A     81  51  35 N3        30.06S
$$




USA.gov is the U.S. government's official web portal to all federal, state and local government web resources and services.